AirNav  
 
 691 users online  

07ID Shepard Strip Airport
Oldtown, Idaho, USA


FAA INFORMATION EFFECTIVE 04 JANUARY 2018

Location

FAA Identifier: 07ID
Lat/Long: 48-08-57.1560N / 116-59-52.8480W
48-08.952600N / 116-59.880800W
48.1492100 / -116.9980133
(estimated)
Elevation: 2313.3 ft. / 705 m
From city: 3 miles SE of OLDTOWN, ID
Time zone: UTC -8 (UTC -7 during Daylight Saving Time)
Zip code: 83822

Airport Operations

Airport use: Private use. Permission required prior to landing
Activation date: 07/2016
Control tower: no
ARTCC: SEATTLE CENTER
FSS: BOISE FLIGHT SERVICE STATION
Attendance: 
Segmented circle: no

Airport Communications

WX AWOS-3 at SZT (20 nm NE): 135.425 (208-263-3074)

Nearby radio navigation aids

VOR radial/distance  VOR name  Freq  Var
COEr323/23.6COEUR D'ALENE VOR/DME108.8019E

 
NDB name  Hdg/Dist  Freq  Var  ID
SANDPOE230/19.326414ESZT ... --.. -
DEER PARK042/20.336516EDPY -.. .--. -.--
IONE133/37.537921EION .. --- -.

Airport Services

Runway Information

Runway 18/36

Dimensions: 1955 x 110 ft. / 596 x 34 m
Surface: turf
RUNWAY 18  RUNWAY 36
Latitude: 48-09.113317N48-08.791867N
Longitude: 116-59.876800W116-59.884800W
Elevation: 2313.3 ft.2297.8 ft.
Traffic pattern: leftleft

Airport Ownership and Management from official FAA records

Ownership: Privately-owned
Owner: DANIEL R. (JR) SHEPARD, JR.
94 SHEPARD ROAD
OLDTOWN, ID
Phone 208 659 6193
Manager: DANIEL R. (JR) SHEPARD
94 SHEPARD ROAD
ODTOWN, ID 83822

Instrument Procedures

There are no published instrument procedures at 07ID.

Some nearby airports with instrument procedures:

KSZT - Sandpoint Airport (20 nm NE)
KDEW - Deer Park Airport (20 nm SW)
KCOE - Coeur d'Alene Airport - Pappy Boyington Field (24 nm S)
KSFF - Felts Field Airport (31 nm SW)
KGEG - Spokane International Airport (38 nm SW)
 
Loc | Ops | Rwys | IFR | FBO | Links
Com | Nav | Svcs | Stats | Notes


 
Aerial photo
No photo
 
Airport distance calculator
Flying to Shepard Strip Airport? Find the distance to fly.

From to 07ID

Sunrise and sunset
Times for 20-Jan-2018
 Local
(UTC-8)
 Zulu
(UTC)
Morning civil twilight06:5614:56
Sunrise07:3115:31
Sunset16:2800:28
Evening civil twilight17:0201:02

Current date and time
Zulu (UTC)  20-Jan-2018 13:28:22
Local (UTC-8)  20-Jan-2018 05:28:22
 
METAR
KSZT 
20nm NE 
201315Z AUTO 19004KT 10SM OVC021 01/00 A2995 RMK AO2
KDEW 
21nm SW 
201253Z AUTO 18006KT 10SM OVC013 01/M01 A2995 RMK AO2 SLP160 T00061011
KCOE 
24nm S 
201256Z AUTO 19005KT 10SM -RA OVC025 02/M01 A2996 RMK AO2 RAB04E19B40UPB19E23B49E56 SLP181 P0000 T00171011 FZRANO
KSFF 
31nm SW 
201253Z AUTO 19005KT 10SM FEW021 OVC070 03/M02 A2997 RMK AO2 SLP159 T00281017
KGEG 
39nm SW 
201253Z 18007KT 10SM FEW010 BKN075 BKN100 01/M01 A2994 RMK AO2 SLP154 T00061011
TAF
KCOE 
24nm S 
201138Z 2012/2112 18005KT P6SM BKN030 OVC050 TEMPO 2013/2017 3SM -SHSN OVC025 FM201700 21006KT 3SM -SHSN BKN025 OVC040 FM202300 19005KT P6SM VCSH SCT025 BKN050 FM210400 20004KT P6SM BKN025 OVC150
NOTAMs
Click for the latest NOTAMs
NOTAMs are issued by the DoD/FAA and will open in a separate window not controlled by AirNav.

 

 
 

Would you like to see your business listed on this page?

 If your business provides an interesting product or service to pilots, flight crews, aircraft, or users of the Shepard Strip Airport, you should consider listing it here.  To start the listing process, click on the button below
 
Add a business
 

Other Pages about Shepard Strip Airport

Update a link
 
Copyright © AirNav, LLC. All rights reserved. Privacy Policy  Contact